{"data":{"norad_id":62368,"epoch":"2026-09-22T22:22:02.490528Z","epoch_age_seconds":101832,"freshness":"FRESH","line1":"1 62368U 24245D   26265.93197327 -.00000047  00000+0  55685-4 0  9998","line2":"2 62368  44.9837 246.5945 0006428 115.3313 244.8186 13.99208712 90031","mean_motion":13.99208712,"eccentricity":0.0006428,"inclination_deg":44.9837,"raan_deg":246.5945,"arg_perigee_deg":115.3313,"mean_anomaly_deg":244.8186,"bstar":5.5685e-5,"rev_number":9003,"period_min":102.91531117911,"perigee_km":891.86036352272,"apogee_km":901.21268380474,"semimajor_km":7274.6735236637,"source":"CELESTRAK","updated_at":"2026-09-23T09:00:21.389681Z"}}